[[{"header":{"parameterUnit":"m.s-1","parameterCategory":1,"la1":30.2991,"la2":30.254,"lo1":-89.0895,"lo2":-89.0444,"dy":0.0017,"dx":0.0017,"nx":28,"ny":28,"refTime":"2025-12-11T03:00:00:Z","depth":0,"parameterNumber":2,"parameterNumberName":"U-component_of_WINDS"},"data":[0,0,0,0,0,0,0,0,0,0,0,0,0,0,0,0,0,0,0,0,0,0,0,0,0,0,0,0,0,0,0,0,0,0,0,0,0,0,0,0,0,0,0,0,0,0,0,0,0,0,0,0,0,0,0,0,0,0,1.7375,1.7376,0,1.7502,1.7503,1.7505,1.7511,1.7509,1.7508,1.7506,1.7645,1.765,1.7655,0,0,0,0,0,0,0,0,0,0,0,0,0,1.7147,1.7151,1.7375,1.7376,1.7378,1.7501,1.7503,1.7505,1.7511,1.7509,1.7507,1.7505,1.7643,1.7649,1.7655,0,0,0,0,0,0,0,0,0,0,0,0,0,1.7257,1.7152,1.7374,1.7395,1.7399,1.7501,1.7503,1.7505,1.7511,1.7509,1.7507,1.7505,1.7641,1.7649,1.7656,1.7749,0,0,1.7679,1.7683,0,0,0,0,0,0,0,0,1.7251,1.7265,1.7391,1.7394,1.7398,1.7488,1.7474,1.7587,1.7512,1.7469,1.7506,1.7503,1.7595,1.7606,1.7635,1.7755,1.7761,1.768,1.7685,1.7688,1.769,0,0,0,0,0,0,0,1.7243,1.726,1.7425,1.7393,1.7397,1.7402,1.7415,1.7495,1.7543,1.7472,1.7473,1.7488,1.7597,1.7628,1.7639,1.7763,1.768,1.7687,1.7691,1.7694,1.7969,1.7971,0,0,0,0,0,0,1.723,1.7254,1.7421,1.7429,1.7317,1.7408,1.7422,1.7461,1.7542,1.7552,1.7489,1.7487,1.7616,1.763,1.7644,1.7758,1.7688,1.7695,1.77,1.7966,1.7969,1.7972,0,0,0,0,0,0,1.7225,1.7245,1.7416,1.7342,1.7364,1.7414,1.7458,1.7465,1.7496,1.7555,1.7565,1.7512,1.7615,1.7633,1.7722,1.7763,1.7699,1.7706,1.7963,1.7967,1.7971,1.7988,0,0,0,0,0,0,1.7218,1.7243,1.7276,1.7342,1.7367,1.749,1.746,1.7469,1.7508,1.7507,1.7579,1.7589,1.7614,1.7711,1.773,1.7773,1.7712,1.7959,1.7965,1.7969,1.7984,1.7992,1.7999,0,0,0,0,0,1.721,1.7278,1.7278,1.7298,1.741,1.7492,1.7507,1.7532,1.7512,1.7547,1.7585,1.7586,1.7756,1.772,1.7742,1.7787,1.7957,1.7963,1.7969,1.7981,1.7991,1.7999,0,0,0,0,0,0,1.7218,1.7286,1.7288,1.7378,1.7429,1.7493,1.7538,1.7542,1.7602,1.7599,1.7631,1.7647,1.7736,1.7771,1.773,1.7883,1.7854,1.7865,1.7856,1.7866,1.7873,1.7863,1.7718,0,0,0,0,0,1.7229,1.7288,1.7346,1.742,1.7445,1.7487,1.7524,1.7539,1.7595,1.7617,1.7662,1.7718,1.7784,1.7827,1.7891,1.799,1.8007,1.8032,1.8039,1.8045,1.8054,1.8111,1.8123,1.7992,1.7992,1.7992,0,0,1.7255,1.73,1.7335,1.7423,1.7464,1.7526,1.7505,1.7572,1.762,1.7628,1.7715,1.775,1.7816,1.791,1.7954,1.7942,1.8094,1.8053,1.8057,1.8063,1.8118,1.8131,1.8141,1.7996,1.7995,1.7995,0,0,1.7333,1.7372,1.7438,1.748,1.7542,1.757,1.7586,1.765,1.7673,1.776,1.7768,1.7828,1.794,1.7986,1.8025,1.8123,1.8127,1.8144,1.8183,1.8237,1.8248,1.8257,1.8293,1.8306,1.8152,1.8152,1.8152,0,1.7357,1.7448,1.7473,1.7539,1.7578,1.7587,1.7656,1.7697,1.7778,1.7807,1.7791,1.7933,1.7978,1.8084,1.8108,1.8139,1.8161,1.8135,1.8244,1.8253,1.8263,1.8297,1.8311,1.8154,1.8154,1.8153,1.8153,0,1.7476,1.754,1.7587,1.7662,1.7707,1.7775,1.7812,1.7855,1.7868,1.7898,1.7989,1.8043,1.8118,1.8145,1.8159,1.8255,1.8245,1.8236,1.8209,1.8276,1.831,1.8323,1.8156,1.8156,1.8155,1.8155,0,0,1.7561,1.7649,1.7666,1.7701,1.7771,1.7823,1.7893,1.7964,1.8001,1.8058,1.8119,1.8215,1.8208,1.8251,1.8271,1.8319,1.8395,1.8305,1.8307,1.832,1.8506,1.8511,1.8526,1.8398,1.8401,1.8403,1.8501,0,1.7647,1.7767,1.7792,1.7897,1.7958,1.7968,1.803,1.8081,1.8113,1.8171,1.8208,1.8275,1.826,1.8286,1.8334,1.8375,1.8433,1.8369,1.8458,1.8461,1.844,1.8543,1.8549,1.8639,1.8514,1.8516,1.8517,0,1.7762,1.7819,1.793,1.7993,1.802,1.8074,1.8143,1.8198,1.8258,1.8278,1.8327,1.8342,1.8418,1.8387,1.8495,1.8451,1.8489,1.8515,1.852,1.8529,1.8492,1.8556,1.8668,1.8681,1.8538,1.8536,1.8535,0,1.7813,1.7918,1.7998,1.8028,1.8104,1.8142,1.8176,1.8234,1.8276,1.8338,1.8366,1.8437,1.8475,1.8531,1.8566,1.854,1.8672,1.8643,1.8692,1.8691,1.8719,1.8717,1.8838,1.8744,1.8744,1.8743,1.8743,0,1.7906,1.7974,1.8022,1.8071,1.8149,1.8178,1.8255,1.829,1.8342,1.84,1.8416,1.8471,1.8513,1.8576,1.8604,1.869,1.8708,1.8728,1.8734,1.8726,1.8724,1.8751,1.8746,1.8747,1.8746,1.8745,1.8745,0,1.7975,1.801,1.8098,1.8163,1.8181,1.8236,1.8293,1.8343,1.8375,1.8449,1.8469,1.852,1.8595,1.8635,1.8729,1.8749,1.8845,1.8848,1.8823,1.8826,1.8873,1.8868,1.9017,1.9039,1.8929,1.893,1.8931,0,1.8032,1.8084,1.8154,1.8193,1.8227,1.829,1.8333,1.8366,1.841,1.8484,1.8526,1.8601,1.8662,1.8782,1.883,1.8903,1.8908,1.8956,1.8919,1.891,1.891,1.8906,1.8912,1.8962,1.8963,1.8963,1.8964,0,1.8129,1.8144,1.8203,1.8269,1.8319,1.8374,1.8428,1.846,1.8502,1.8552,1.8627,1.8675,1.877,1.8846,1.8922,1.8962,1.8971,1.8975,1.8991,1.8982,1.8966,1.8976,1.884,1.8971,1.8971,1.897,1.897,1.8969,1.8194,1.8241,1.8298,1.8364,1.8408,1.8459,1.8509,1.8547,1.8609,1.8688,1.8705,1.8785,1.8847,1.8951,1.8992,1.9057,1.9048,1.907,1.9076,1.9081,1.9083,1.8955,1.9072,1.9072,1.9071,1.9071,1.9071,0,1.8292,1.8329,1.839,1.8464,1.8517,1.8519,1.858,1.8625,1.8694,1.875,1.881,1.8898,1.8971,1.9025,1.9101,1.9143,1.915,1.9162,1.916,1.9169,1.9086,1.9065,1.9156,1.9156,1.9156,1.9156,1.9156,1.9156,1.8349,1.8429,1.8451,1.8555,1.8593,1.8669,1.8704,1.8752,1.8797,1.8893,1.8953,1.8987,1.9043,1.9124,1.9192,1.9207,1.9235,1.9247,1.9262,1.9183,1.9174,1.9166,1.9146,1.9252,1.9252,1.9339,1.934,1.934]},{"header":{"parameterUnit":"m.s-1","parameterCategory":1,"la1":30.2991,"la2":30.254,"lo1":-89.0895,"lo2":-89.0444,"dy":0.0017,"dx":0.0017,"nx":28,"ny":28,"refTime":"2025-12-11T03:00:00:Z","depth":0,"parameterNumber":3,"parameterNumberName":"V-component_of_WINDS"},"data":[0,0,0,0,0,0,0,0,0,0,0,0,0,0,0,0,0,0,0,0,0,0,0,0,0,0,0,0,0,0,0,0,0,0,0,0,0,0,0,0,0,0,0,0,0,0,0,0,0,0,0,0,0,0,0,0,0,0,1.4754,1.4754,0,1.4835,1.4836,1.4837,1.4849,1.4848,1.4848,1.4847,1.4928,1.4931,1.4934,0,0,0,0,0,0,0,0,0,0,0,0,0,1.4606,1.4609,1.4753,1.4754,1.4755,1.4835,1.4836,1.4837,1.4849,1.4848,1.4847,1.4847,1.4927,1.4931,1.4934,0,0,0,0,0,0,0,0,0,0,0,0,0,1.4677,1.4609,1.4753,1.4771,1.4774,1.4835,1.4836,1.4837,1.4849,1.4848,1.4847,1.4846,1.4926,1.493,1.4935,1.4983,0,0,1.4948,1.4949,0,0,0,0,0,0,0,0,1.4673,1.4682,1.4767,1.477,1.4773,1.4831,1.4814,1.4886,1.485,1.4821,1.4847,1.4846,1.4897,1.4903,1.4921,1.4987,1.499,1.4948,1.4951,1.4952,1.4954,0,0,0,0,0,0,0,1.4668,1.4679,1.4786,1.4769,1.4772,1.4774,1.4783,1.4828,1.4864,1.4823,1.4824,1.4834,1.4898,1.4917,1.4923,1.4991,1.4948,1.4952,1.4954,1.4956,1.51,1.5102,0,0,0,0,0,0,1.466,1.4675,1.4783,1.4788,1.4719,1.4778,1.4788,1.4813,1.4863,1.487,1.4834,1.4834,1.491,1.4918,1.4926,1.4986,1.4952,1.4956,1.4959,1.5099,1.5101,1.5102,0,0,0,0,0,0,1.4657,1.467,1.478,1.4732,1.4746,1.4782,1.481,1.4815,1.4834,1.4872,1.4878,1.4847,1.4909,1.492,1.4969,1.4989,1.4958,1.4962,1.5098,1.51,1.5101,1.5106,0,0,0,0,0,0,1.4653,1.4668,1.4688,1.4732,1.4748,1.4822,1.4811,1.4818,1.4842,1.4842,1.4886,1.4892,1.4909,1.4962,1.4973,1.4994,1.4966,1.5096,1.5099,1.5101,1.5104,1.5108,1.5111,0,0,0,0,0,1.4647,1.4685,1.4689,1.4702,1.4774,1.4823,1.4833,1.4853,1.4844,1.4863,1.4887,1.489,1.4985,1.4967,1.4979,1.5002,1.5095,1.5098,1.5101,1.5103,1.5107,1.5111,0,0,0,0,0,0,1.4642,1.4692,1.4696,1.475,1.4782,1.4825,1.485,1.4857,1.4892,1.489,1.4913,1.4923,1.497,1.4991,1.4971,1.5051,1.5039,1.5044,1.5036,1.5041,1.5044,1.5038,1.4969,0,0,0,0,0,1.4647,1.4684,1.4725,1.4768,1.4785,1.4815,1.4837,1.485,1.4884,1.4898,1.4925,1.4958,1.4995,1.5019,1.5055,1.5107,1.5116,1.5128,1.5131,1.5134,1.5139,1.5167,1.5173,1.5112,1.5112,1.5111,0,0,1.4658,1.469,1.4711,1.4768,1.4795,1.4832,1.4826,1.4866,1.4893,1.4903,1.4952,1.4973,1.5011,1.5061,1.5085,1.508,1.5158,1.5138,1.5139,1.5143,1.5171,1.5177,1.5182,1.5113,1.5113,1.5113,0,0,1.4697,1.4725,1.4764,1.4791,1.4832,1.4851,1.486,1.4903,1.4918,1.4966,1.4975,1.5007,1.507,1.5097,1.5119,1.5167,1.5172,1.5178,1.5196,1.5223,1.5228,1.5233,1.525,1.5256,1.5182,1.5182,1.5182,0,1.4705,1.4762,1.4783,1.4823,1.4847,1.4858,1.4898,1.4923,1.4973,1.4989,1.4983,1.5062,1.5088,1.5145,1.5157,1.5174,1.5185,1.5174,1.5226,1.5231,1.5235,1.5252,1.5258,1.5183,1.5183,1.5183,1.5183,0,1.477,1.481,1.4836,1.4885,1.4913,1.4952,1.4978,1.5003,1.5012,1.5032,1.5082,1.5113,1.5156,1.517,1.518,1.5229,1.5224,1.5222,1.521,1.5241,1.5257,1.5264,1.5184,1.5183,1.5183,1.5183,0,0,1.4809,1.4869,1.4878,1.49,1.4946,1.4976,1.5015,1.5058,1.5079,1.5113,1.5146,1.5199,1.5197,1.5221,1.5234,1.5258,1.5295,1.5253,1.5254,1.526,1.535,1.5352,1.5359,1.5298,1.5299,1.53,1.5347,0,1.4853,1.4925,1.4945,1.5005,1.5041,1.5052,1.5086,1.5117,1.5137,1.517,1.5191,1.5228,1.5222,1.5237,1.5262,1.5285,1.5313,1.5282,1.5328,1.533,1.532,1.5368,1.5371,1.5414,1.5353,1.5355,1.5355,0,1.4915,1.4951,1.5015,1.5056,1.5072,1.5102,1.5143,1.5174,1.5209,1.5222,1.5249,1.526,1.53,1.5286,1.5341,1.532,1.534,1.5354,1.5356,1.5362,1.5345,1.5375,1.5428,1.5434,1.5365,1.5365,1.5364,0,1.4937,1.5001,1.5048,1.5067,1.5115,1.5136,1.5157,1.5192,1.5216,1.525,1.5266,1.5305,1.5326,1.5355,1.5375,1.5363,1.543,1.5417,1.5441,1.544,1.5455,1.5454,1.5512,1.5467,1.5467,1.5467,1.5466,0,1.4985,1.5024,1.5059,1.5088,1.5131,1.5153,1.5195,1.5216,1.5246,1.5279,1.529,1.532,1.5345,1.5378,1.5393,1.5437,1.5447,1.5457,1.5461,1.5457,1.5456,1.5471,1.5469,1.5468,1.5468,1.5468,1.5467,0,1.5018,1.5042,1.5094,1.5136,1.5147,1.5177,1.5213,1.5241,1.526,1.5301,1.5312,1.5343,1.5382,1.5405,1.5455,1.5465,1.5514,1.5516,1.5503,1.5505,1.5527,1.5525,1.5598,1.5609,1.5556,1.5556,1.5556,0,1.5047,1.5077,1.5122,1.5145,1.5167,1.5204,1.5229,1.525,1.5276,1.5318,1.534,1.5381,1.5415,1.5477,1.5503,1.5541,1.5545,1.5567,1.555,1.5545,1.5545,1.5544,1.5547,1.557,1.5571,1.5571,1.5572,0,1.5097,1.5107,1.5143,1.5183,1.5213,1.5245,1.5277,1.5295,1.5322,1.535,1.5391,1.5417,1.5468,1.5508,1.5548,1.5568,1.5575,1.5577,1.5584,1.5581,1.5572,1.5577,1.5511,1.5575,1.5575,1.5574,1.5574,1.5574,1.5129,1.5156,1.5192,1.5232,1.5258,1.5288,1.5316,1.534,1.5375,1.5418,1.5429,1.5472,1.5506,1.556,1.5582,1.5615,1.5611,1.5622,1.5625,1.5628,1.5629,1.5566,1.5623,1.5623,1.5622,1.5622,1.5622,0,1.5179,1.5203,1.5239,1.5284,1.5315,1.5318,1.5354,1.5379,1.5417,1.5449,1.5482,1.5529,1.5567,1.5596,1.5636,1.5657,1.5661,1.5666,1.5665,1.567,1.563,1.562,1.5663,1.5663,1.5663,1.5663,1.5663,1.5663,1.5209,1.5256,1.5271,1.533,1.5354,1.5397,1.5417,1.5444,1.5469,1.5522,1.5554,1.5573,1.5603,1.5645,1.568,1.5688,1.5702,1.5707,1.5715,1.5677,1.5673,1.5669,1.5659,1.571,1.571,1.5753,1.5753,1.5754]}]]